Location: Berduj
(43.0019°N, 22.3781°E)
Time: 23:01:53
(UTC+00:00)

Lacrosse 5 - Pass Details

Date: 19 October 2019
Orbit: 715 x 724 km, 57.0° (Epoch: 27 October)

Event Time Altitude Azimuth Distance (km) Brightness Sun altitude
Rises 16:40:40 0° 315° (NW) 3,124 5.8 -11.4°
Reaches altitude 10° 16:43:15 10° 325° (NW) 2,201 4.8 -11.9°
Maximum altitude 16:47:51 34° 30° (NNE) 1,177 2.7 -12.7°
Enters shadow 16:50:43 19° 82° (E) 1,651 3.1 -13.3°
